Regional Weather Roundup
Issued by NWS

Home | Current Version | Previous Version | Text Only | Print | Product List | Glossary On
Versions: 1 2 3 4 5 6 7 8 9 10 11 12 13 14 15 16 17 18 19 20 21 22 23 24 25 26 27 28 29 30 31 32 33 34 35 36 37 38 39 40 41 42 43 44 45 46 47 48 49 50
000
ASUS43 KTOP 021308
RWRKS

WEATHER ROUNDUP FOR KANSAS
NATIONAL WEATHER SERVICE GOODLAND KS
800 AM CDT WED SEP 02 2015

NOTE:  "FAIR" INDICATES FEW OR NO CLOUDS BELOW 12,000 FEET WITH NO
SIGNIFICANT WEATHER AND/OR OBSTRUCTIONS TO VISIBILITY.

KSZ001>006-013>018-027>032-041>047-021400-
NORTHWEST KANSAS

CITY           SKY/WX    TMP DP  RH WIND       PRES   REMARKS
GOODLAND       CLEAR     63  56  78 W6        29.98R
HAYS           CLEAR     73  55  53 S13       29.94R
HILL CITY      CLEAR     72  57  59 SW7       29.93R
RUSSELL        CLEAR     74  61  63 S16       29.93R
$$

KSZ061>065-074>080-084>089-021400-
SOUTHWEST KANSAS

CITY           SKY/WX    TMP DP  RH WIND       PRES   REMARKS
DODGE CITY     CLEAR     70  57  63 S14       29.98S
ELKHART          N/A     67  54  63 SW10        N/A
GARDEN CITY    CLEAR     64  57  78 S8        29.96S
GREAT BEND     CLEAR     73  59  60 S15G22    29.95S
LIBERAL        PTCLDY    75  54  46 S14       30.01R
PRATT          MOCLDY    72  59  64 MISG      30.01R
$$

KSZ066>073-081>083-090>101-021400-
SOUTHEAST KANSAS

CITY           SKY/WX    TMP DP  RH WIND       PRES   REMARKS
CHANUTE        SUNNY     71  67  87 S9        30.05R
COFFEYVILLE    SUNNY     70  67  90 S7        30.05R
HUTCHINSON     MOSUNNY   76  62  62 S14       29.99R
MEDICINE LODGE   N/A     72  63  73 S9        30.00R
NEWTON         MOSUNNY   73  61  64 S16       30.03R
PARSONS        SUNNY     70  68  93 S5        30.06R
WICHITA INTL   PTSUNNY   73  64  73 S12       30.01R
WICHITA JABRA  MOSUNNY   73  64  73 S10       30.01R
WICHITA MCCONL MOSUNNY   73  61  65 S13       30.01R
WINFIELD       MOSUNNY   74  65  73 S10       30.04R
$$

KSZ007>012-019>026-033>040-048>060-102>105-021400-
NORTHEAST KANSAS

CITY           SKY/WX    TMP DP  RH WIND       PRES   REMARKS
CONCORDIA      SUNNY     74  63  68 S15       29.92R
EMPORIA        MOSUNNY   71  65  81 S12       30.01R
LAWRENCE       CLOUDY    73  67  81 CALM      30.04R
MANHATTAN      MOSUNNY   76  65  68 S12       29.95R
MARYSVILLE     MOSUNNY  N/A N/A N/A S7        29.95R
OLATHE IND     CLOUDY    72  66  81 S9        30.05R
OLATHE EXE     PTSUNNY   71  66  84 S9        30.04R
SALINA         PTSUNNY   77  62  59 S13       29.94R
TOPEKA BILLARD TSTM      73  68  84 S15G21    30.02R
TOPEKA FORBES  TSTM      73  67  81 SW6       30.04R VSB 3/4
$$


USA.gov is the U.S. government's official web portal to all federal, state and local government web resources and services.